Year,Month,Day,Hour,Minute,Value (Times are PST for temperature in C)
2016,12,17,00,00,-7.70
2016,12,17,00,01,-7.70
2016,12,17,00,02,-7.60
2016,12,17,00,03,-7.60
2016,12,17,00,04,-7.60
2016,12,17,00,05,-7.60
2016,12,17,00,06,-7.60
2016,12,17,00,07,-7.50
2016,12,17,00,08,-7.50
2016,12,17,00,09,-7.40
2016,12,17,00,10,-7.40
2016,12,17,00,11,-7.40
2016,12,17,00,12,-7.40
2016,12,17,00,13,-7.30
2016,12,17,00,14,-7.30
2016,12,17,00,15,-7.30
2016,12,17,00,16,-7.30
2016,12,17,00,17,-7.30
2016,12,17,00,18,-7.20
2016,12,17,00,19,-7.20
2016,12,17,00,20,-7.20
2016,12,17,00,21,-7.20
2016,12,17,00,22,-7.20
2016,12,17,00,23,-7.10
2016,12,17,00,24,-7.10
2016,12,17,00,25,-7.10
2016,12,17,00,26,-7.10
2016,12,17,00,27,-7.10
2016,12,17,00,28,-7.00
2016,12,17,00,29,-7.00
2016,12,17,00,30,-7.00
2016,12,17,00,31,-7.00
2016,12,17,00,32,-6.90
2016,12,17,00,33,-6.90
2016,12,17,00,34,-6.80
2016,12,17,00,35,-6.80
2016,12,17,00,36,-6.80
2016,12,17,00,37,-6.80
2016,12,17,00,38,-6.80
2016,12,17,00,39,-6.80
2016,12,17,00,40,-6.80
2016,12,17,00,41,-6.80
2016,12,17,00,42,-6.80
2016,12,17,00,43,-6.80
2016,12,17,00,44,-6.80
2016,12,17,00,45,-6.80
2016,12,17,00,46,-6.80
2016,12,17,00,47,-6.80
2016,12,17,00,48,-6.70
2016,12,17,00,49,-6.70
2016,12,17,00,50,-6.70
2016,12,17,00,51,-6.70
2016,12,17,00,52,-6.70
2016,12,17,00,53,-6.70
2016,12,17,00,54,-6.60
2016,12,17,00,55,-6.60
2016,12,17,00,56,-6.60
2016,12,17,00,57,-6.50
2016,12,17,00,58,-6.50
2016,12,17,00,59,-6.50
2016,12,17,01,00,-6.40
2016,12,17,01,01,-6.40
2016,12,17,01,02,-6.40
2016,12,17,01,03,-6.40
2016,12,17,01,04,-6.40
2016,12,17,01,05,-6.30
2016,12,17,01,06,-6.30
2016,12,17,01,07,-6.30
2016,12,17,01,08,-6.30
2016,12,17,01,09,-6.30
2016,12,17,01,10,-6.30
2016,12,17,01,11,-6.30
2016,12,17,01,12,-6.20
2016,12,17,01,13,-6.20
2016,12,17,01,14,-6.20
2016,12,17,01,15,-6.20
2016,12,17,01,16,-6.20
2016,12,17,01,17,-6.20
2016,12,17,01,18,-6.20
2016,12,17,01,19,-6.20
2016,12,17,01,20,-6.20
2016,12,17,01,21,-6.20
2016,12,17,01,22,-6.20
2016,12,17,01,23,-6.10
2016,12,17,01,24,-6.10
2016,12,17,01,25,-6.10
2016,12,17,01,26,-6.10
2016,12,17,01,27,-6.10
2016,12,17,01,28,-6.10
2016,12,17,01,29,-6.10
2016,12,17,01,30,-6.10
2016,12,17,01,31,-6.10
2016,12,17,01,32,-6.10
2016,12,17,01,33,-6.10
2016,12,17,01,34,-6.10
2016,12,17,01,35,-6.10
2016,12,17,01,36,-6.10
2016,12,17,01,37,-6.10
2016,12,17,01,38,-6.10
2016,12,17,01,39,-6.10
2016,12,17,01,40,-6.10
2016,12,17,01,41,-6.20
2016,12,17,01,42,-6.20
2016,12,17,01,43,-6.20
2016,12,17,01,44,-6.20
2016,12,17,01,45,-6.20
2016,12,17,01,46,-6.20
2016,12,17,01,47,-6.20
2016,12,17,01,48,-6.20
2016,12,17,01,49,-6.20
2016,12,17,01,50,-6.20
2016,12,17,01,51,-6.20
2016,12,17,01,52,-6.20
2016,12,17,01,53,-6.30
2016,12,17,01,54,-6.30
2016,12,17,01,55,-6.30
2016,12,17,01,56,-6.30
2016,12,17,01,57,-6.30
2016,12,17,01,58,-6.30
2016,12,17,01,59,-6.30
2016,12,17,02,00,-6.30
2016,12,17,02,01,-6.40
2016,12,17,02,02,-6.40
2016,12,17,02,03,-6.40
2016,12,17,02,04,-6.40
2016,12,17,02,05,-6.40
2016,12,17,02,06,-6.40
2016,12,17,02,07,-6.40
2016,12,17,02,08,-6.40
2016,12,17,02,09,-6.40
2016,12,17,02,10,-6.50
2016,12,17,02,11,-6.50
2016,12,17,02,12,-6.50
2016,12,17,02,13,-6.50
2016,12,17,02,14,-6.50
2016,12,17,02,15,-6.60
2016,12,17,02,16,-6.60
2016,12,17,02,17,-6.60
2016,12,17,02,18,-6.60
2016,12,17,02,19,-6.60
2016,12,17,02,20,-6.60
2016,12,17,02,21,-6.70
2016,12,17,02,22,-6.70
2016,12,17,02,23,-6.70
2016,12,17,02,24,-6.70
2016,12,17,02,25,-6.70
2016,12,17,02,26,-6.80
2016,12,17,02,27,-6.80
2016,12,17,02,28,-6.80
2016,12,17,02,29,-6.80
2016,12,17,02,30,-6.80
2016,12,17,02,31,-6.80
2016,12,17,02,32,-6.80
2016,12,17,02,33,-6.80
2016,12,17,02,34,-6.80
2016,12,17,02,35,-6.80
2016,12,17,02,36,-6.80
2016,12,17,02,37,-6.80
2016,12,17,02,38,-6.80
2016,12,17,02,39,-6.80
2016,12,17,02,40,-6.80
2016,12,17,02,41,-6.80
2016,12,17,02,42,-6.80
2016,12,17,02,43,-6.80
2016,12,17,02,44,-6.80
2016,12,17,02,45,-6.80
2016,12,17,02,46,-6.90
2016,12,17,02,47,-6.90
2016,12,17,02,48,-6.90
2016,12,17,02,49,-7.00
2016,12,17,02,50,-7.00
2016,12,17,02,51,-7.00
2016,12,17,02,52,-7.00
2016,12,17,02,53,-7.10
2016,12,17,02,54,-7.10
2016,12,17,02,55,-7.10
2016,12,17,02,56,-7.10
2016,12,17,02,57,-7.10
2016,12,17,02,58,-7.10
2016,12,17,02,59,-7.10
2016,12,17,03,00,-7.20
2016,12,17,03,01,-7.20
2016,12,17,03,02,-7.20
2016,12,17,03,03,-7.20
2016,12,17,03,04,-7.20
2016,12,17,03,05,-7.20
2016,12,17,03,06,-7.20
2016,12,17,03,07,-7.20
2016,12,17,03,08,-7.20
2016,12,17,03,09,-7.20
2016,12,17,03,10,-7.20
2016,12,17,03,11,-7.20
2016,12,17,03,12,-7.20
2016,12,17,03,13,-7.20
2016,12,17,03,14,-7.20
2016,12,17,03,15,-7.20
2016,12,17,03,16,-7.20
2016,12,17,03,17,-7.20
2016,12,17,03,18,-7.20
2016,12,17,03,19,-7.20
2016,12,17,03,20,-7.20
2016,12,17,03,21,-7.20
2016,12,17,03,22,-7.20
2016,12,17,03,23,-7.20
2016,12,17,03,24,-7.30
2016,12,17,03,25,-7.30
2016,12,17,03,26,-7.30
2016,12,17,03,27,-7.30
2016,12,17,03,28,-7.30
2016,12,17,03,29,-7.30
2016,12,17,03,30,-7.30
2016,12,17,03,31,-7.30
2016,12,17,03,32,-7.30
2016,12,17,03,33,-7.30
2016,12,17,03,34,-7.30
2016,12,17,03,35,-7.30
2016,12,17,03,36,-7.30
2016,12,17,03,37,-7.30
2016,12,17,03,38,-7.30
2016,12,17,03,39,-7.30
2016,12,17,03,40,-7.30
2016,12,17,03,41,-7.30
2016,12,17,03,42,-7.30
2016,12,17,03,43,-7.30
2016,12,17,03,44,-7.40
2016,12,17,03,45,-7.30
2016,12,17,03,46,-7.40
2016,12,17,03,47,-7.30
2016,12,17,03,48,-7.30
2016,12,17,03,49,-7.40
2016,12,17,03,50,-7.40
2016,12,17,03,51,-7.40
2016,12,17,03,52,-7.40
2016,12,17,03,53,-7.40
2016,12,17,03,54,-7.40
2016,12,17,03,55,-7.40
2016,12,17,03,56,-7.40
2016,12,17,03,57,-7.40
2016,12,17,03,58,-7.40
2016,12,17,03,59,-7.40
2016,12,17,04,00,-7.40
2016,12,17,04,01,-7.40
2016,12,17,04,02,-7.30
2016,12,17,04,03,-7.30
2016,12,17,04,04,-7.30
2016,12,17,04,05,-7.30
2016,12,17,04,06,-7.30
2016,12,17,04,07,-7.30
2016,12,17,04,08,-7.30
2016,12,17,04,09,-7.30
2016,12,17,04,10,-7.30
2016,12,17,04,11,-7.30
2016,12,17,04,12,-7.30
2016,12,17,04,13,-7.30
2016,12,17,04,14,-7.30
2016,12,17,04,15,-7.30
2016,12,17,04,16,-7.20
2016,12,17,04,17,-7.20
2016,12,17,04,18,-7.20
2016,12,17,04,19,-7.20
2016,12,17,04,20,-7.20
2016,12,17,04,21,-7.20
2016,12,17,04,22,-7.20
2016,12,17,04,23,-7.20
2016,12,17,04,24,-7.20
2016,12,17,04,25,-7.20
2016,12,17,04,26,-7.20
2016,12,17,04,27,-7.20
2016,12,17,04,28,-7.20
2016,12,17,04,29,-7.20
2016,12,17,04,30,-7.20
2016,12,17,04,31,-7.20
2016,12,17,04,32,-7.20
2016,12,17,04,33,-7.20
2016,12,17,04,34,-7.20
2016,12,17,04,35,-7.20
2016,12,17,04,36,-7.10
2016,12,17,04,37,-7.10
2016,12,17,04,38,-7.10
2016,12,17,04,39,-7.10
2016,12,17,04,40,-7.10
2016,12,17,04,41,-7.10
2016,12,17,04,42,-7.10
2016,12,17,04,43,-7.10
2016,12,17,04,44,-7.10
2016,12,17,04,45,-7.10
2016,12,17,04,46,-7.00
2016,12,17,04,47,-7.00
2016,12,17,04,48,-7.00
2016,12,17,04,49,-7.00
2016,12,17,04,50,-7.00
2016,12,17,04,51,-7.00
2016,12,17,04,52,-7.00
2016,12,17,04,53,-6.90
2016,12,17,04,54,-6.90
2016,12,17,04,55,-6.90
2016,12,17,04,56,-6.90
2016,12,17,04,57,-6.80
2016,12,17,04,58,-6.80
2016,12,17,04,59,-6.80
2016,12,17,05,00,-6.80
2016,12,17,05,01,-6.80
2016,12,17,05,02,-6.80
2016,12,17,05,03,-6.80
2016,12,17,05,04,-6.80
2016,12,17,05,05,-6.80
2016,12,17,05,06,-6.80
2016,12,17,05,07,-6.80
2016,12,17,05,08,-6.80
2016,12,17,05,09,-6.80
2016,12,17,05,10,-6.80
2016,12,17,05,11,-6.80
2016,12,17,05,12,-6.80
2016,12,17,05,13,-6.70
2016,12,17,05,14,-6.70
2016,12,17,05,15,-6.70
2016,12,17,05,16,-6.70
2016,12,17,05,17,-6.70
2016,12,17,05,18,-6.60
2016,12,17,05,19,-6.60
2016,12,17,05,20,-6.60
2016,12,17,05,21,-6.50
2016,12,17,05,22,-6.50
2016,12,17,05,23,-6.50
2016,12,17,05,24,-6.40
2016,12,17,05,25,-6.40
2016,12,17,05,26,-6.40
2016,12,17,05,27,-6.30
2016,12,17,05,28,-6.30
2016,12,17,05,29,-6.30
2016,12,17,05,30,-6.30
2016,12,17,05,31,-6.30
2016,12,17,05,32,-6.30
2016,12,17,05,33,-6.30
2016,12,17,05,34,-6.20
2016,12,17,05,35,-6.20
2016,12,17,05,36,-6.20
2016,12,17,05,37,-6.20
2016,12,17,05,38,-6.20
2016,12,17,05,39,-6.20
2016,12,17,05,40,-6.20
2016,12,17,05,41,-6.10
2016,12,17,05,42,-6.10
2016,12,17,05,43,-6.10
2016,12,17,05,44,-6.10
2016,12,17,05,45,-6.10
2016,12,17,05,46,-6.10
2016,12,17,05,47,-6.00
2016,12,17,05,48,-6.00
2016,12,17,05,49,-6.00
2016,12,17,05,50,-5.90
2016,12,17,05,51,-5.90
2016,12,17,05,52,-5.90
2016,12,17,05,53,-5.90
2016,12,17,05,54,-5.90
2016,12,17,05,55,-5.90
2016,12,17,05,56,-5.90
2016,12,17,05,57,-5.80
2016,12,17,05,58,-5.80
2016,12,17,05,59,-5.80
2016,12,17,06,00,-5.70
2016,12,17,06,01,-5.70
2016,12,17,06,02,-5.70
2016,12,17,06,03,-5.70
2016,12,17,06,04,-5.70
2016,12,17,06,05,-5.70
2016,12,17,06,06,-5.70
2016,12,17,06,07,-5.60
2016,12,17,06,08,-5.60
2016,12,17,06,09,-5.60
2016,12,17,06,10,-5.60
2016,12,17,06,11,-5.60
2016,12,17,06,12,-5.60
2016,12,17,06,13,-5.60
2016,12,17,06,14,-5.50
2016,12,17,06,15,-5.50
2016,12,17,06,16,-5.50
2016,12,17,06,17,-5.50
2016,12,17,06,18,-5.50
2016,12,17,06,19,-5.40
2016,12,17,06,20,-5.40
2016,12,17,06,21,-5.40
2016,12,17,06,22,-5.40
2016,12,17,06,23,-5.40
2016,12,17,06,24,-5.40
2016,12,17,06,25,-5.40
2016,12,17,06,26,-5.40
2016,12,17,06,27,-5.40
2016,12,17,06,28,-5.40
2016,12,17,06,29,-5.30
2016,12,17,06,30,-5.30
2016,12,17,06,31,-5.30
2016,12,17,06,32,-5.30
2016,12,17,06,33,-5.30
2016,12,17,06,34,-5.30
2016,12,17,06,35,-5.30
2016,12,17,06,36,-5.30
2016,12,17,06,37,-5.20
2016,12,17,06,38,-5.20
2016,12,17,06,39,-5.20
2016,12,17,06,40,-5.20
2016,12,17,06,41,-5.20
2016,12,17,06,42,-5.20
2016,12,17,06,43,-5.20
2016,12,17,06,44,-5.20
2016,12,17,06,45,-5.20
2016,12,17,06,46,-5.10
2016,12,17,06,47,-5.10
2016,12,17,06,48,-5.10
2016,12,17,06,49,-5.10
2016,12,17,06,50,-5.10
2016,12,17,06,51,-5.10
2016,12,17,06,52,-5.10
2016,12,17,06,53,-5.10
2016,12,17,06,54,-5.10
2016,12,17,06,55,-5.10
2016,12,17,06,56,-5.10
2016,12,17,06,57,-5.00
2016,12,17,06,58,-5.00
2016,12,17,06,59,-5.00
2016,12,17,07,00,-5.00
2016,12,17,07,01,-5.00
2016,12,17,07,02,-4.90
2016,12,17,07,03,-4.90
2016,12,17,07,04,-4.90
2016,12,17,07,05,-4.90
2016,12,17,07,06,-4.90
2016,12,17,07,07,-4.90
2016,12,17,07,08,-4.80
2016,12,17,07,09,-4.80
2016,12,17,07,10,-4.80
2016,12,17,07,11,-4.80
2016,12,17,07,12,-4.80
2016,12,17,07,13,-4.80
2016,12,17,07,14,-4.70
2016,12,17,07,15,-4.70
2016,12,17,07,16,-4.70
2016,12,17,07,17,-4.70
2016,12,17,07,18,-4.70
2016,12,17,07,19,-4.60
2016,12,17,07,20,-4.70
2016,12,17,07,21,-4.60
2016,12,17,07,22,-4.60
2016,12,17,07,23,-4.60
2016,12,17,07,24,-4.60
2016,12,17,07,25,-4.60
2016,12,17,07,26,-4.60
2016,12,17,07,27,-4.60
2016,12,17,07,28,-4.60
2016,12,17,07,29,-4.60
2016,12,17,07,30,-4.60
2016,12,17,07,31,-4.50
2016,12,17,07,32,-4.50
2016,12,17,07,33,-4.50
2016,12,17,07,34,-4.50
2016,12,17,07,35,-4.50
2016,12,17,07,36,-4.50
2016,12,17,07,37,-4.50
2016,12,17,07,38,-4.50
2016,12,17,07,39,-4.50
2016,12,17,07,40,-4.50
2016,12,17,07,41,-4.40
2016,12,17,07,42,-4.40
2016,12,17,07,43,-4.40
2016,12,17,07,44,-4.40
2016,12,17,07,45,-4.40
2016,12,17,07,46,-4.40
2016,12,17,07,47,-4.40
2016,12,17,07,48,-4.40
2016,12,17,07,49,-4.40
2016,12,17,07,50,-4.40
2016,12,17,07,51,-4.40
2016,12,17,07,52,-4.40
2016,12,17,07,53,-4.40
2016,12,17,07,54,-4.40
2016,12,17,07,55,-4.40
2016,12,17,07,56,-4.30
2016,12,17,07,57,-4.40
2016,12,17,07,58,-4.40
2016,12,17,07,59,-4.30
2016,12,17,08,00,-4.30
2016,12,17,08,01,-4.30
2016,12,17,08,02,-4.30
2016,12,17,08,03,-4.30
2016,12,17,08,04,-4.30
2016,12,17,08,05,-4.30
2016,12,17,08,06,-4.30
2016,12,17,08,07,-4.30
2016,12,17,08,08,-4.30
2016,12,17,08,09,-4.30
2016,12,17,08,10,-4.30
2016,12,17,08,11,-4.30
2016,12,17,08,12,-4.30
2016,12,17,08,13,-4.30
2016,12,17,08,14,-4.30
2016,12,17,08,15,-4.30
2016,12,17,08,16,-4.30
2016,12,17,08,17,-4.30
2016,12,17,08,18,-4.30
2016,12,17,08,19,-4.30
2016,12,17,08,20,-4.30
2016,12,17,08,21,-4.20
2016,12,17,08,22,-4.20
2016,12,17,08,23,-4.20
2016,12,17,08,24,-4.20
2016,12,17,08,25,-4.20
2016,12,17,08,26,-4.20
2016,12,17,08,27,-4.20
2016,12,17,08,28,-4.20
2016,12,17,08,29,-4.20
2016,12,17,08,30,-4.20
2016,12,17,08,31,-4.20
2016,12,17,08,32,-4.20
2016,12,17,08,33,-4.10
2016,12,17,08,34,-4.10
2016,12,17,08,35,-4.10
2016,12,17,08,36,-4.10
2016,12,17,08,37,-4.10
2016,12,17,08,38,-4.10
2016,12,17,08,39,-4.10
2016,12,17,08,40,-4.10
2016,12,17,08,41,-4.00
2016,12,17,08,42,-4.00
2016,12,17,08,43,-4.00
2016,12,17,08,44,-4.00
2016,12,17,08,45,-4.00
2016,12,17,08,46,-4.00
2016,12,17,08,47,-3.90
2016,12,17,08,48,-3.90
2016,12,17,08,49,-3.90
2016,12,17,08,50,-3.90
2016,12,17,08,51,-3.90
2016,12,17,08,52,-3.90
2016,12,17,08,53,-3.90
2016,12,17,08,54,-3.80
2016,12,17,08,55,-3.80
2016,12,17,08,56,-3.80
2016,12,17,08,57,-3.80
2016,12,17,08,58,-3.80
2016,12,17,08,59,-3.80
2016,12,17,09,00,-3.80
2016,12,17,09,01,-3.80
2016,12,17,09,02,-3.70
2016,12,17,09,03,-3.70
2016,12,17,09,04,-3.70
2016,12,17,09,05,-3.70
2016,12,17,09,06,-3.70
2016,12,17,09,07,-3.70
2016,12,17,09,08,-3.70
2016,12,17,09,09,-3.70
2016,12,17,09,10,-3.70
2016,12,17,09,11,-3.70
2016,12,17,09,12,-3.70
2016,12,17,09,13,-3.70
2016,12,17,09,14,-3.70
2016,12,17,09,15,-3.70
2016,12,17,09,16,-3.70
2016,12,17,09,17,-3.70
2016,12,17,09,18,-3.70
2016,12,17,09,19,-3.70
2016,12,17,09,20,-3.70
2016,12,17,09,21,-3.70
2016,12,17,09,22,-3.70
2016,12,17,09,23,-3.70
2016,12,17,09,24,-3.70
2016,12,17,09,25,-3.70
2016,12,17,09,26,-3.60
2016,12,17,09,27,-3.60
2016,12,17,09,28,-3.60
2016,12,17,09,29,-3.60
2016,12,17,09,30,-3.60
2016,12,17,09,31,-3.60
2016,12,17,09,32,-3.60
2016,12,17,09,33,-3.60
2016,12,17,09,34,-3.60
2016,12,17,09,35,-3.60
2016,12,17,09,36,-3.60
2016,12,17,09,37,-3.60
2016,12,17,09,38,-3.50
2016,12,17,09,39,-3.50
2016,12,17,09,40,-3.50
2016,12,17,09,41,-3.50
2016,12,17,09,42,-3.50
2016,12,17,09,43,-3.50
2016,12,17,09,44,-3.50
2016,12,17,09,45,-3.50
2016,12,17,09,46,-3.50
2016,12,17,09,47,-3.50
2016,12,17,09,48,-3.50
2016,12,17,09,49,-3.50
2016,12,17,09,50,-3.50
2016,12,17,09,51,-3.50
2016,12,17,09,52,-3.50
2016,12,17,09,53,-3.40
2016,12,17,09,54,-3.40
2016,12,17,09,55,-3.40
2016,12,17,09,56,-3.40
2016,12,17,09,57,-3.40
2016,12,17,09,58,-3.40
2016,12,17,09,59,-3.40
2016,12,17,10,00,-3.40
2016,12,17,10,01,-3.40
2016,12,17,10,02,-3.40
2016,12,17,10,03,-3.40
2016,12,17,10,04,-3.30
2016,12,17,10,05,-3.30
2016,12,17,10,06,-3.30
2016,12,17,10,07,-3.30
2016,12,17,10,08,-3.30
2016,12,17,10,09,-3.30
2016,12,17,10,10,-3.30
2016,12,17,10,11,-3.30
2016,12,17,10,12,-3.30
2016,12,17,10,13,-3.30
2016,12,17,10,14,-3.30
2016,12,17,10,15,-3.30
2016,12,17,10,16,-3.20
2016,12,17,10,17,-3.20
2016,12,17,10,18,-3.20
2016,12,17,10,19,-3.20
2016,12,17,10,20,-3.20
2016,12,17,10,21,-3.20
2016,12,17,10,22,-3.20
2016,12,17,10,23,-3.20
2016,12,17,10,24,-3.20
2016,12,17,10,25,-3.20
2016,12,17,10,26,-3.20
2016,12,17,10,27,-3.20
2016,12,17,10,28,-3.20
2016,12,17,10,29,-3.20
2016,12,17,10,30,-3.20
2016,12,17,10,31,-3.20
2016,12,17,10,32,-3.20
2016,12,17,10,33,-3.20
2016,12,17,10,34,-3.20
2016,12,17,10,35,-3.10
2016,12,17,10,36,-3.10
2016,12,17,10,37,-3.10
2016,12,17,10,38,-3.10
2016,12,17,10,39,-3.10
2016,12,17,10,40,-3.10
2016,12,17,10,41,-3.10
2016,12,17,10,42,-3.10
2016,12,17,10,43,-3.00
2016,12,17,10,44,-3.00
2016,12,17,10,45,-3.00
2016,12,17,10,46,-3.00
2016,12,17,10,47,-3.00
2016,12,17,10,48,-3.00
2016,12,17,10,49,-3.00
2016,12,17,10,50,-3.00
2016,12,17,10,51,-3.00
2016,12,17,10,52,-3.00
2016,12,17,10,53,-3.00
2016,12,17,10,54,-3.00
2016,12,17,10,55,-3.00
2016,12,17,10,56,-3.00
2016,12,17,10,57,-3.00
2016,12,17,10,58,-2.90
2016,12,17,10,59,-2.90
2016,12,17,11,00,-2.90
2016,12,17,11,01,-2.90
2016,12,17,11,02,-2.90
2016,12,17,11,03,-2.90
2016,12,17,11,04,-2.90
2016,12,17,11,05,-2.90
2016,12,17,11,06,-2.90
2016,12,17,11,07,-2.90
2016,12,17,11,08,-2.90
2016,12,17,11,09,-2.90
2016,12,17,11,10,-2.90
2016,12,17,11,11,-2.90
2016,12,17,11,12,-2.90
2016,12,17,11,13,-2.90
2016,12,17,11,14,-2.80
2016,12,17,11,15,-2.90
2016,12,17,11,16,-2.80
2016,12,17,11,17,-2.80
2016,12,17,11,18,-2.80
2016,12,17,11,19,-2.80
2016,12,17,11,20,-2.80
2016,12,17,11,21,-2.80
2016,12,17,11,22,-2.80
2016,12,17,11,23,-2.80
2016,12,17,11,24,-2.80
2016,12,17,11,25,-2.80
2016,12,17,11,26,-2.80
2016,12,17,11,27,-2.80
2016,12,17,11,28,-2.80
2016,12,17,11,29,-2.80
2016,12,17,11,30,-2.70
2016,12,17,11,31,-2.70
2016,12,17,11,32,-2.70
2016,12,17,11,33,-2.70
2016,12,17,11,34,-2.70
2016,12,17,11,35,-2.70
2016,12,17,11,36,-2.70
2016,12,17,11,37,-2.70
2016,12,17,11,38,-2.70
2016,12,17,11,39,-2.60
2016,12,17,11,40,-2.60
2016,12,17,11,41,-2.60
2016,12,17,11,42,-2.60
2016,12,17,11,43,-2.60
2016,12,17,11,44,-2.60
2016,12,17,11,45,-2.60
2016,12,17,11,46,-2.60
2016,12,17,11,47,-2.60
2016,12,17,11,48,-2.60
2016,12,17,11,49,-2.60
2016,12,17,11,50,-2.60
2016,12,17,11,51,-2.60
2016,12,17,11,52,-2.60
2016,12,17,11,53,-2.60
2016,12,17,11,54,-2.60
2016,12,17,11,55,-2.60
2016,12,17,11,56,-2.60
2016,12,17,11,57,-2.60
2016,12,17,11,58,-2.60
2016,12,17,11,59,-2.50
2016,12,17,12,00,-2.50
2016,12,17,12,01,-2.50
2016,12,17,12,02,-2.50
2016,12,17,12,03,-2.50
2016,12,17,12,04,-2.50
2016,12,17,12,05,-2.50
2016,12,17,12,06,-2.50
2016,12,17,12,07,-2.50
2016,12,17,12,08,-2.50
2016,12,17,12,09,-2.50
2016,12,17,12,10,-2.50
2016,12,17,12,11,-2.40
2016,12,17,12,12,-2.40
2016,12,17,12,13,-2.40
2016,12,17,12,14,-2.40
2016,12,17,12,15,-2.40
2016,12,17,12,16,-2.40
2016,12,17,12,17,-2.40
2016,12,17,12,18,-2.40
2016,12,17,12,19,-2.40
2016,12,17,12,20,-2.40
2016,12,17,12,21,-2.40
2016,12,17,12,22,-2.40
2016,12,17,12,23,-2.40
2016,12,17,12,24,-2.40
2016,12,17,12,25,-2.40
2016,12,17,12,26,-2.40
2016,12,17,12,27,-2.40
2016,12,17,12,28,-2.40
2016,12,17,12,29,-2.40
2016,12,17,12,30,-2.40
2016,12,17,12,31,-2.40
2016,12,17,12,32,-2.40
2016,12,17,12,33,-2.40
2016,12,17,12,34,-2.40
2016,12,17,12,35,-2.30
2016,12,17,12,36,-2.30
2016,12,17,12,37,-2.30
2016,12,17,12,38,-2.30
2016,12,17,12,39,-2.30
2016,12,17,12,40,-2.30
2016,12,17,12,41,-2.30
2016,12,17,12,42,-2.30
2016,12,17,12,43,-2.30
2016,12,17,12,44,-2.30
2016,12,17,12,45,-2.30
2016,12,17,12,46,-2.30
2016,12,17,12,47,-2.30
2016,12,17,12,48,-2.30
2016,12,17,12,49,-2.30
2016,12,17,12,50,-2.30
2016,12,17,12,51,-2.30
2016,12,17,12,52,-2.30
2016,12,17,12,53,-2.30
2016,12,17,12,54,-2.30
2016,12,17,12,55,-2.30
2016,12,17,12,56,-2.30
2016,12,17,12,57,-2.30
2016,12,17,12,58,-2.30
2016,12,17,12,59,-2.30
2016,12,17,13,00,-2.30
2016,12,17,13,01,-2.30
2016,12,17,13,02,-2.30
2016,12,17,13,03,-2.20
2016,12,17,13,04,-2.20
2016,12,17,13,05,-2.20
2016,12,17,13,06,-2.20
2016,12,17,13,07,-2.20
2016,12,17,13,08,-2.20
2016,12,17,13,09,-2.20
2016,12,17,13,10,-2.20
2016,12,17,13,11,-2.10
2016,12,17,13,12,-2.10
2016,12,17,13,13,-2.10
2016,12,17,13,14,-2.10
2016,12,17,13,15,-2.10
2016,12,17,13,16,-2.10
2016,12,17,13,17,-2.10
2016,12,17,13,18,-2.10
2016,12,17,13,19,-2.10
2016,12,17,13,20,-2.10
2016,12,17,13,21,-2.10
2016,12,17,13,22,-2.00
2016,12,17,13,23,-2.00
2016,12,17,13,24,-2.00
2016,12,17,13,25,-2.00
2016,12,17,13,26,-1.90
2016,12,17,13,27,-1.90
2016,12,17,13,28,-1.90
2016,12,17,13,29,-1.90
2016,12,17,13,30,-1.90
2016,12,17,13,31,-1.90
2016,12,17,13,32,-1.90
2016,12,17,13,33,-1.90
2016,12,17,13,34,-1.90
2016,12,17,13,35,-1.90
2016,12,17,13,36,-1.90
2016,12,17,13,37,-1.90
2016,12,17,13,38,-1.90
2016,12,17,13,39,-1.90
2016,12,17,13,40,-1.90
2016,12,17,13,41,-1.90
2016,12,17,13,42,-1.90
2016,12,17,13,43,-2.00
2016,12,17,13,44,-2.00
2016,12,17,13,45,-2.00
2016,12,17,13,46,-2.00
2016,12,17,13,47,-2.00
2016,12,17,13,48,-1.90
2016,12,17,13,49,-1.90
2016,12,17,13,50,-1.90
2016,12,17,13,51,-1.90
2016,12,17,13,52,-1.90
2016,12,17,13,53,-1.90
2016,12,17,13,54,-1.90
2016,12,17,13,55,-1.80
2016,12,17,13,56,-1.80
2016,12,17,13,57,-1.80
2016,12,17,13,58,-1.80
2016,12,17,13,59,-1.80
2016,12,17,14,00,-1.80
2016,12,17,14,01,-1.80
2016,12,17,14,02,-1.80
2016,12,17,14,03,-1.80
2016,12,17,14,04,-1.80
2016,12,17,14,05,-1.80
2016,12,17,14,06,-1.80
2016,12,17,14,07,-1.80
2016,12,17,14,08,-1.80
2016,12,17,14,09,-1.80
2016,12,17,14,10,-1.80
2016,12,17,14,11,-1.80
2016,12,17,14,12,-1.80
2016,12,17,14,13,-1.80
2016,12,17,14,14,-1.80
2016,12,17,14,15,-1.80
2016,12,17,14,16,-1.80
2016,12,17,14,17,-1.80
2016,12,17,14,18,-1.80
2016,12,17,14,19,-1.90
2016,12,17,14,20,-1.90
2016,12,17,14,21,-1.90
2016,12,17,14,22,-1.90
2016,12,17,14,23,-1.90
2016,12,17,14,24,-1.90
2016,12,17,14,25,-1.90
2016,12,17,14,26,-1.90
2016,12,17,14,27,-1.90
2016,12,17,14,28,-1.90
2016,12,17,14,29,-1.90
2016,12,17,14,30,-1.90
2016,12,17,14,31,-1.90
2016,12,17,14,32,-1.90
2016,12,17,14,33,-1.90
2016,12,17,14,34,-1.80
2016,12,17,14,35,-1.80
2016,12,17,14,36,-1.80
2016,12,17,14,37,-1.80
2016,12,17,14,38,-1.80
2016,12,17,14,39,-1.80
2016,12,17,14,40,-1.80
2016,12,17,14,41,-1.80
2016,12,17,14,42,-1.80
2016,12,17,14,43,-1.80
2016,12,17,14,44,-1.80
2016,12,17,14,45,-1.80
2016,12,17,14,46,-1.80
2016,12,17,14,47,-1.80
2016,12,17,14,48,-1.70
2016,12,17,14,49,-1.70
2016,12,17,14,50,-1.70
2016,12,17,14,51,-1.70
2016,12,17,14,52,-1.70
2016,12,17,14,53,-1.70
2016,12,17,14,54,-1.70
2016,12,17,14,55,-1.80
2016,12,17,14,56,-1.80
2016,12,17,14,57,-1.80
2016,12,17,14,58,-1.80
2016,12,17,14,59,-1.80
2016,12,17,15,00,-1.80
2016,12,17,15,01,-1.80
2016,12,17,15,02,-1.80
2016,12,17,15,03,-1.80
2016,12,17,15,04,-1.80
2016,12,17,15,05,-1.80
2016,12,17,15,06,-1.80
2016,12,17,15,07,-1.80
2016,12,17,15,08,-1.80
2016,12,17,15,09,-1.80
2016,12,17,15,10,-1.80
2016,12,17,15,11,-1.80
2016,12,17,15,12,-1.80
2016,12,17,15,13,-1.80
2016,12,17,15,14,-1.80
2016,12,17,15,15,-1.80
2016,12,17,15,16,-1.80
2016,12,17,15,17,-1.80
2016,12,17,15,18,-1.80
2016,12,17,15,19,-1.80
2016,12,17,15,20,-1.80
2016,12,17,15,21,-1.90
2016,12,17,15,22,-1.90
2016,12,17,15,23,-1.90
2016,12,17,15,24,-1.90
2016,12,17,15,25,-1.90
2016,12,17,15,26,-1.90
2016,12,17,15,27,-1.90
2016,12,17,15,28,-1.90
2016,12,17,15,29,-2.00
2016,12,17,15,30,-2.00
2016,12,17,15,31,-2.00
2016,12,17,15,32,-2.00
2016,12,17,15,33,-2.00
2016,12,17,15,34,-2.00
2016,12,17,15,35,-2.00
2016,12,17,15,36,-2.10
2016,12,17,15,37,-2.10
2016,12,17,15,38,-2.10
2016,12,17,15,39,-2.10
2016,12,17,15,40,-2.10
2016,12,17,15,41,-2.10
2016,12,17,15,42,-2.10
2016,12,17,15,43,-2.10
2016,12,17,15,44,-2.10
2016,12,17,15,45,-2.10
2016,12,17,15,46,-2.10
2016,12,17,15,47,-2.10
2016,12,17,15,48,-2.10
2016,12,17,15,49,-2.10
2016,12,17,15,50,-2.10
2016,12,17,15,51,-2.10
2016,12,17,15,52,-2.10
2016,12,17,15,53,-2.10
2016,12,17,15,54,-2.10
2016,12,17,15,55,-2.10
2016,12,17,15,56,-2.10
2016,12,17,15,57,-2.10
2016,12,17,15,58,-2.10
2016,12,17,15,59,-2.20
2016,12,17,16,00,-2.20
2016,12,17,16,01,-2.20
2016,12,17,16,02,-2.20
2016,12,17,16,03,-2.20
2016,12,17,16,04,-2.20
2016,12,17,16,05,-2.20
2016,12,17,16,06,-2.20
2016,12,17,16,07,-2.20
2016,12,17,16,08,-2.20
2016,12,17,16,09,-2.30
2016,12,17,16,10,-2.30
2016,12,17,16,11,-2.30
2016,12,17,16,12,-2.30
2016,12,17,16,13,-2.30
2016,12,17,16,14,-2.30
2016,12,17,16,15,-2.30
2016,12,17,16,16,-2.30
2016,12,17,16,17,-2.30
2016,12,17,16,18,-2.30
2016,12,17,16,19,-2.30
2016,12,17,16,20,-2.30
2016,12,17,16,21,-2.30
2016,12,17,16,22,-2.30
2016,12,17,16,23,-2.30
2016,12,17,16,24,-2.30
2016,12,17,16,25,-2.30
2016,12,17,16,26,-2.30
2016,12,17,16,27,-2.30
2016,12,17,16,28,-2.30
2016,12,17,16,29,-2.30
2016,12,17,16,30,-2.40
2016,12,17,16,31,-2.40
2016,12,17,16,32,-2.40
2016,12,17,16,33,-2.40
2016,12,17,16,34,-2.40
2016,12,17,16,35,-2.40
2016,12,17,16,36,-2.40
2016,12,17,16,37,-2.40
2016,12,17,16,38,-2.40
2016,12,17,16,39,-2.40
2016,12,17,16,40,-2.40
2016,12,17,16,41,-2.40
2016,12,17,16,42,-2.40
2016,12,17,16,43,-2.40
2016,12,17,16,44,-2.40
2016,12,17,16,45,-2.40
2016,12,17,16,46,-2.40
2016,12,17,16,47,-2.40
2016,12,17,16,48,-2.40
2016,12,17,16,49,-2.40
2016,12,17,16,50,-2.50
2016,12,17,16,51,-2.50
2016,12,17,16,52,-2.50
2016,12,17,16,53,-2.50
2016,12,17,16,54,-2.50
2016,12,17,16,55,-2.50
2016,12,17,16,56,-2.50
2016,12,17,16,57,-2.50
2016,12,17,16,58,-2.50
2016,12,17,16,59,-2.50
2016,12,17,17,00,-2.50
2016,12,17,17,01,-2.60
2016,12,17,17,02,-2.60
2016,12,17,17,03,-2.60
2016,12,17,17,04,-2.60
2016,12,17,17,05,-2.60
2016,12,17,17,06,-2.60
2016,12,17,17,07,-2.60
2016,12,17,17,08,-2.60
2016,12,17,17,09,-2.60
2016,12,17,17,10,-2.60
2016,12,17,17,11,-2.60
2016,12,17,17,12,-2.60
2016,12,17,17,13,-2.60
2016,12,17,17,14,-2.60
2016,12,17,17,15,-2.70
2016,12,17,17,16,-2.70
2016,12,17,17,17,-2.70
2016,12,17,17,18,-2.70
2016,12,17,17,19,-2.70